Time,TemperatureF,DewpointF,PressureIn,WindDirection,WindDirectionDegrees,WindSpeedMPH,WindSpeedGustMPH,Humidity,HourlyPrecipIn,Conditions,Clouds,dailyrainin,SoftwareType,DateUTC
2013-03-21 00:00:00,44.1,28.9,30.03,WSW,248,3.1,7.4,55,0.00,,,0.00,WUHU216HW,2013-03-21 07:00:00,
2013-03-21 00:05:00,44.1,28.9,30.03,WNW,293,3.8,7.4,55,0.00,,,0.00,WUHU216HW,2013-03-21 07:05:00,
2013-03-21 00:10:00,43.9,28.3,30.02,NW,315,1.8,5.8,54,0.00,,,0.00,WUHU216HW,2013-03-21 07:10:00,
2013-03-21 00:15:00,43.9,28.3,30.02,WSW,248,4.7,7.6,54,0.00,,,0.00,WUHU216HW,2013-03-21 07:15:00,
2013-03-21 00:20:00,43.9,28.3,30.02,WSW,248,4.0,7.6,54,0.00,,,0.00,WUHU216HW,2013-03-21 07:20:00,
2013-03-21 00:25:00,43.9,28.3,30.02,West,270,4.3,6.0,54,0.00,,,0.00,WUHU216HW,2013-03-21 07:25:00,
2013-03-21 00:30:00,43.7,28.2,30.02,NW,315,3.4,7.4,54,0.00,,,0.00,WUHU216HW,2013-03-21 07:30:00,
2013-03-21 00:35:00,43.9,28.3,30.02,West,270,3.6,7.4,54,0.00,,,0.00,WUHU216HW,2013-03-21 07:35:00,
2013-03-21 00:40:00,43.7,28.2,30.02,WNW,293,4.7,8.5,54,0.00,,,0.00,WUHU216HW,2013-03-21 07:40:00,
2013-03-21 00:45:00,43.7,28.2,30.01,WNW,293,4.0,8.5,54,0.00,,,0.00,WUHU216HW,2013-03-21 07:45:00,
2013-03-21 00:50:00,43.6,28.0,30.01,WNW,293,4.0,6.3,54,0.00,,,0.00,WUHU216HW,2013-03-21 07:50:00,
2013-03-21 00:55:00,43.6,28.0,30.01,West,270,2.5,8.5,54,0.00,,,0.00,WUHU216HW,2013-03-21 07:55:00,
2013-03-21 01:00:00,43.6,28.0,30.01,NW,315,2.9,8.5,54,0.00,,,0.00,WUHU216HW,2013-03-21 08:00:00,
2013-03-21 01:05:00,43.6,28.0,30.01,North,0,2.5,8.5,54,0.00,,,0.00,WUHU216HW,2013-03-21 08:05:00,
2013-03-21 01:10:00,43.7,28.2,30.01,NNW,338,3.4,8.5,54,0.00,,,0.00,WUHU216HW,2013-03-21 08:10:00,
2013-03-21 01:15:00,43.9,27.9,30.01,North,0,1.8,6.7,53,0.00,,,0.00,WUHU216HW,2013-03-21 08:15:00,
2013-03-21 01:20:00,43.9,27.9,30.01,WNW,293,4.3,6.3,53,0.00,,,0.00,WUHU216HW,2013-03-21 08:20:00,
2013-03-21 01:25:00,43.9,28.3,30.01,WNW,293,1.6,6.3,54,0.00,,,0.00,WUHU216HW,2013-03-21 08:25:00,
2013-03-21 01:30:00,43.9,28.3,30.01,NNE,23,3.6,6.3,54,0.00,,,0.00,WUHU216HW,2013-03-21 08:30:00,
2013-03-21 01:35:00,43.9,28.3,30.01,WNW,293,2.5,6.3,54,0.00,,,0.00,WUHU216HW,2013-03-21 08:35:00,
2013-03-21 01:40:00,43.9,28.7,30.00,SW,225,8.1,8.1,55,0.00,,,0.00,WUHU216HW,2013-03-21 08:40:00,
2013-03-21 01:45:00,43.7,28.6,30.01,NW,315,4.7,8.1,55,0.00,,,0.00,WUHU216HW,2013-03-21 08:45:00,
2013-03-21 01:50:00,43.7,28.6,30.00,WSW,248,5.8,9.2,55,0.00,,,0.00,WUHU216HW,2013-03-21 08:50:00,
2013-03-21 01:55:00,43.7,28.6,30.00,North,0,4.7,9.2,55,0.00,,,0.00,WUHU216HW,2013-03-21 08:55:00,
2013-03-21 02:00:00,43.9,28.7,30.00,NNE,23,1.6,8.5,55,0.00,,,0.00,WUHU216HW,2013-03-21 09:00:00,
2013-03-21 02:05:00,43.9,28.7,30.00,West,270,5.6,8.5,55,0.00,,,0.00,WUHU216HW,2013-03-21 09:05:00,
2013-03-21 02:10:00,43.9,28.3,30.00,NW,315,3.1,8.5,54,0.00,,,0.00,WUHU216HW,2013-03-21 09:10:00,
2013-03-21 02:15:00,43.7,28.6,30.00,West,270,2.7,8.5,55,0.00,,,0.00,WUHU216HW,2013-03-21 09:15:00,
2013-03-21 02:20:00,43.7,28.6,30.00,North,0,3.4,9.2,55,0.00,,,0.00,WUHU216HW,2013-03-21 09:20:00,
2013-03-21 02:25:00,43.6,28.5,30.00,NW,315,3.1,9.2,55,0.00,,,0.00,WUHU216HW,2013-03-21 09:25:00,
2013-03-21 02:30:00,43.6,28.5,30.00,WNW,293,3.1,10.1,55,0.00,,,0.00,WUHU216HW,2013-03-21 09:30:00,
2013-03-21 02:35:00,43.4,28.3,30.00,NNW,338,4.3,10.1,55,0.00,,,0.00,WUHU216HW,2013-03-21 09:35:00,
2013-03-21 02:40:00,43.2,28.5,30.00,NNW,338,4.0,7.6,56,0.00,,,0.00,WUHU216HW,2013-03-21 09:40:00,
2013-03-21 02:45:00,43.0,28.8,30.00,NNW,338,5.8,7.6,57,0.00,,,0.00,WUHU216HW,2013-03-21 09:45:00,
2013-03-21 02:50:00,42.8,28.6,30.00,NNW,338,4.3,10.3,57,0.00,,,0.00,WUHU216HW,2013-03-21 09:50:00,
2013-03-21 02:55:00,42.7,28.5,29.99,NNW,338,4.0,10.3,57,0.00,,,0.00,WUHU216HW,2013-03-21 09:55:00,
2013-03-21 03:00:00,42.5,28.3,30.00,West,270,3.1,6.5,57,0.00,,,0.00,WUHU216HW,2013-03-21 10:00:00,
2013-03-21 03:05:00,42.3,28.1,29.99,NNW,338,3.6,6.9,57,0.00,,,0.00,WUHU216HW,2013-03-21 10:05:00,
2013-03-21 03:10:00,42.1,27.5,29.98,West,270,3.4,7.6,56,0.00,,,0.00,WUHU216HW,2013-03-21 10:10:00,
2013-03-21 03:15:00,42.1,27.5,29.98,SW,225,6.5,7.6,56,0.00,,,0.00,WUHU216HW,2013-03-21 10:15:00,
2013-03-21 03:20:00,41.9,26.9,29.98,NE,45,2.5,6.5,55,0.00,,,0.00,WUHU216HW,2013-03-21 10:20:00,
2013-03-21 03:25:00,41.9,26.9,29.98,NE,45,2.5,6.0,55,0.00,,,0.00,WUHU216HW,2013-03-21 10:25:00,
2013-03-21 03:50:00,41.0,25.1,30.00,SSW,203,6.9,6.9,53,0.00,,,0.00,WUHU216HW,2013-03-21 10:50:00,
2013-03-21 03:55:00,41.0,25.1,30.00,SSW,203,6.9,6.9,53,0.00,,,0.00,WUHU216HW,2013-03-21 10:55:00,
2013-03-21 04:00:00,40.7,24.8,29.99,WNW,293,2.5,2.5,53,0.00,,,0.00,WUHU216HW,2013-03-21 11:00:00,
2013-03-21 04:05:00,40.7,24.8,29.99,WNW,293,2.5,2.5,53,0.00,,,0.00,WUHU216HW,2013-03-21 11:05:00,
2013-03-21 04:30:00,40.0,23.7,29.98,SW,225,2.5,2.5,52,0.00,,,0.00,WUHU216HW,2013-03-21 11:30:00,
2013-03-21 04:35:00,40.0,23.7,29.98,SW,225,2.5,2.5,52,0.00,,,0.00,WUHU216HW,2013-03-21 11:35:00,
2013-03-21 05:00:00,38.9,20.8,29.99,SW,225,2.2,2.2,48,0.00,,,0.00,WUHU216HW,2013-03-21 12:00:00,
2013-03-21 05:05:00,38.9,20.8,29.99,SW,225,2.2,2.2,48,0.00,,,0.00,WUHU216HW,2013-03-21 12:05:00,
2013-03-21 05:30:00,38.0,18.4,29.98,WNW,293,2.5,2.5,45,0.00,,,0.00,WUHU216HW,2013-03-21 12:30:00,
2013-03-21 05:35:00,38.0,18.4,29.98,WNW,293,2.5,2.5,45,0.00,,,0.00,WUHU216HW,2013-03-21 12:35:00,
2013-03-21 06:00:00,37.3,16.2,29.98,West,270,1.1,1.1,42,0.00,,,0.00,WUHU216HW,2013-03-21 13:00:00,
2013-03-21 06:05:00,37.3,16.8,29.98,West,270,1.1,1.1,43,0.00,,,0.00,WUHU216HW,2013-03-21 13:05:00,
2013-03-21 06:10:00,37.3,16.8,29.98,West,270,1.1,1.1,43,0.00,,,0.00,WUHU216HW,2013-03-21 13:10:00,
2013-03-21 06:30:00,36.7,15.2,29.98,SW,225,3.1,3.1,41,0.00,,,0.00,WUHU216HW,2013-03-21 13:30:00,
2013-03-21 06:35:00,36.7,15.2,29.98,SW,225,3.1,3.1,41,0.00,,,0.00,WUHU216HW,2013-03-21 13:35:00,
2013-03-21 07:00:00,37.1,12.4,29.98,SE,135,2.7,2.7,36,0.00,,,0.00,WUHU216HW,2013-03-21 14:00:00,
2013-03-21 07:05:00,37.1,12.4,29.98,SE,135,2.7,2.7,36,0.00,,,0.00,WUHU216HW,2013-03-21 14:05:00,
2013-03-21 07:10:00,37.1,12.4,29.98,SE,135,2.7,2.7,36,0.00,,,0.00,WUHU216HW,2013-03-21 14:10:00,
2013-03-21 07:30:00,37.1,12.4,29.99,WSW,248,2.9,2.9,36,0.00,,,0.00,WUHU216HW,2013-03-21 14:30:00,
2013-03-21 07:35:00,37.1,12.4,29.99,WSW,248,2.9,2.9,36,0.00,,,0.00,WUHU216HW,2013-03-21 14:35:00,
2013-03-21 07:56:00,38.0,12.5,29.98,WNW,293,1.6,1.6,35,0.00,,,0.00,WUHU216HW,2013-03-21 14:56:00,
2013-03-21 08:01:00,38.2,12.7,29.97,WNW,293,1.6,2.5,35,0.00,,,0.00,WUHU216HW,2013-03-21 15:01:00,
2013-03-21 08:06:00,38.3,13.5,29.97,SW,225,2.0,2.5,36,0.00,,,0.00,WUHU216HW,2013-03-21 15:06:00,
2013-03-21 08:11:00,38.5,13.7,29.97,WSW,248,1.3,3.1,36,0.00,,,0.00,WUHU216HW,2013-03-21 15:11:00,
2013-03-21 08:17:00,38.7,13.2,29.97,West,270,1.1,3.1,35,0.00,,,0.00,WUHU216HW,2013-03-21 15:17:00,
2013-03-21 08:22:00,39.2,11.1,29.97,North,0,1.3,3.4,31,0.00,,,0.00,WUHU216HW,2013-03-21 15:22:00,
2013-03-21 08:27:00,40.5,12.9,29.98,North,0,0.4,3.4,32,0.00,,,0.00,WUHU216HW,2013-03-21 15:27:00,
2013-03-21 08:32:00,41.2,12.9,29.98,WNW,293,1.1,2.7,31,0.00,,,0.00,WUHU216HW,2013-03-21 15:32:00,
2013-03-21 08:37:00,41.9,12.8,29.98,SW,225,1.3,2.5,30,0.00,,,0.00,WUHU216HW,2013-03-21 15:37:00,
2013-03-21 08:42:00,42.5,13.2,29.98,NNW,338,1.3,3.4,30,0.00,,,0.00,WUHU216HW,2013-03-21 15:42:00,
2013-03-21 08:47:00,43.0,12.8,29.98,WSW,248,0.7,3.4,29,0.00,,,0.00,WUHU216HW,2013-03-21 15:47:00,
2013-03-21 08:52:00,43.6,13.2,29.98,WSW,248,1.8,3.1,29,0.00,,,0.00,WUHU216HW,2013-03-21 15:52:00,
2013-03-21 08:57:00,44.3,13.9,29.99,West,270,2.2,4.3,29,0.00,,,0.00,WUHU216HW,2013-03-21 15:57:00,
2013-03-21 09:02:00,45.0,13.7,29.98,SW,225,0.4,4.3,28,0.00,,,0.00,WUHU216HW,2013-03-21 16:02:00,
2013-03-21 09:07:00,45.7,14.3,29.99,WSW,248,0.9,4.5,28,0.00,,,0.00,WUHU216HW,2013-03-21 16:07:00,
2013-03-21 09:12:00,46.4,15.0,29.99,SSW,203,2.0,4.5,28,0.00,,,0.00,WUHU216HW,2013-03-21 16:12:00,
2013-03-21 09:17:00,47.0,14.5,29.99,NNW,338,1.1,3.1,27,0.00,,,0.00,WUHU216HW,2013-03-21 16:17:00,
2013-03-21 09:22:00,47.5,15.0,29.99,NW,315,1.8,2.9,27,0.00,,,0.00,WUHU216HW,2013-03-21 16:22:00,
2013-03-21 09:27:00,48.1,15.4,29.99,WSW,248,0.4,2.5,27,0.00,,,0.00,WUHU216HW,2013-03-21 16:27:00,
2013-03-21 09:32:00,48.6,15.8,29.99,WSW,248,0.0,3.1,27,0.00,,,0.00,WUHU216HW,2013-03-21 16:32:00,
2013-03-21 09:37:00,49.1,14.4,29.99,North,0,0.9,3.1,25,0.00,,,0.00,WUHU216HW,2013-03-21 16:37:00,
2013-03-21 09:42:00,49.7,15.0,29.99,North,0,0.0,2.5,25,0.00,,,0.00,WUHU216HW,2013-03-21 16:42:00,
2013-03-21 09:47:00,50.0,15.2,29.99,North,0,0.9,1.8,25,0.00,,,0.00,WUHU216HW,2013-03-21 16:47:00,
2013-03-21 09:52:00,50.6,14.8,29.99,West,270,0.0,2.0,24,0.00,,,0.00,WUHU216HW,2013-03-21 16:52:00,
2013-03-21 09:57:00,50.9,14.1,29.99,ESE,113,1.8,2.5,23,0.00,,,0.00,WUHU216HW,2013-03-21 16:57:00,
2013-03-21 10:02:00,51.3,12.6,29.99,West,270,0.7,3.4,21,0.00,,,0.00,WUHU216HW,2013-03-21 17:02:00,
2013-03-21 10:07:00,51.7,12.9,29.99,NE,45,2.0,3.4,21,0.00,,,0.00,WUHU216HW,2013-03-21 17:07:00,
2013-03-21 10:12:00,52.2,12.3,29.99,NE,45,1.8,2.9,20,0.00,,,0.00,WUHU216HW,2013-03-21 17:12:00,
2013-03-21 10:17:00,52.6,13.6,29.99,West,270,0.7,2.9,21,0.00,,,0.00,WUHU216HW,2013-03-21 17:17:00,
2013-03-21 10:23:00,52.9,13.9,29.99,SE,135,0.9,2.0,21,0.00,,,0.00,WUHU216HW,2013-03-21 17:23:00,
2013-03-21 10:28:00,53.5,13.3,29.99,ENE,68,0.4,5.4,20,0.00,,,0.00,WUHU216HW,2013-03-21 17:28:00,
2013-03-21 10:33:00,53.8,14.6,29.99,SSE,158,0.2,5.4,21,0.00,,,0.00,WUHU216HW,2013-03-21 17:33:00,
2013-03-21 10:38:00,54.4,14.1,29.99,North,0,2.7,2.9,20,0.00,,,0.00,WUHU216HW,2013-03-21 17:38:00,
2013-03-21 10:43:00,54.5,14.3,29.99,NW,315,2.2,3.6,20,0.00,,,0.00,WUHU216HW,2013-03-21 17:43:00,
2013-03-21 10:48:00,54.5,14.3,29.99,NNW,338,1.3,3.6,20,0.00,,,0.00,WUHU216HW,2013-03-21 17:48:00,
2013-03-21 10:53:00,54.4,14.1,29.99,WNW,293,2.0,2.7,20,0.00,,,0.00,WUHU216HW,2013-03-21 17:53:00,
2013-03-21 10:58:00,54.7,14.5,29.98,NNE,23,1.6,2.7,20,0.00,,,0.00,WUHU216HW,2013-03-21 17:58:00,
2013-03-21 11:03:00,55.1,10.3,29.98,North,0,4.7,6.3,17,0.00,,,0.00,WUHU216HW,2013-03-21 18:03:00,
2013-03-21 11:08:00,55.3,11.9,29.98,West,270,0.4,6.3,18,0.00,,,0.00,WUHU216HW,2013-03-21 18:08:00,
2013-03-21 11:13:00,55.6,12.3,29.98,SE,135,2.2,4.7,18,0.00,,,0.00,WUHU216HW,2013-03-21 18:13:00,
2013-03-21 11:18:00,56.0,12.5,29.98,East,90,1.3,4.7,18,0.00,,,0.00,WUHU216HW,2013-03-21 18:18:00,
2013-03-21 11:23:00,56.2,11.1,29.98,NE,45,3.1,4.7,17,0.00,,,0.00,WUHU216HW,2013-03-21 18:23:00,
2013-03-21 11:28:00,56.5,12.9,29.98,ENE,68,0.9,4.3,18,0.00,,,0.00,WUHU216HW,2013-03-21 18:28:00,
2013-03-21 11:33:00,56.7,13.1,29.98,West,270,0.9,3.8,18,0.00,,,0.00,WUHU216HW,2013-03-21 18:33:00,
2013-03-21 11:38:00,56.9,13.1,29.98,NE,45,1.3,4.0,18,0.00,,,0.00,WUHU216HW,2013-03-21 18:38:00,
2013-03-21 11:43:00,57.1,13.3,29.98,East,90,0.9,4.0,18,0.00,,,0.00,WUHU216HW,2013-03-21 18:43:00,
2013-03-21 11:48:00,57.2,11.9,29.98,ESE,113,3.4,6.3,17,0.00,,,0.00,WUHU216HW,2013-03-21 18:48:00,
2013-03-21 11:53:00,57.4,12.1,29.98,ENE,68,1.6,6.3,17,0.00,,,0.00,WUHU216HW,2013-03-21 18:53:00,
2013-03-21 11:58:00,57.8,12.3,29.98,NNE,23,3.1,7.8,17,0.00,,,0.00,WUHU216HW,2013-03-21 18:58:00,
2013-03-21 12:03:00,58.0,12.5,29.98,East,90,4.9,7.8,17,0.00,,,0.00,WUHU216HW,2013-03-21 19:03:00,
2013-03-21 12:08:00,58.0,17.1,29.98,East,90,2.5,6.3,20,0.00,,,0.00,WUHU216HW,2013-03-21 19:08:00,
2013-03-21 12:13:00,58.0,18.1,29.98,NE,45,2.5,6.7,21,0.00,,,0.00,WUHU216HW,2013-03-21 19:13:00,
2013-03-21 12:18:00,57.8,17.9,29.98,North,0,3.4,6.7,21,0.00,,,0.00,WUHU216HW,2013-03-21 19:18:00,
2013-03-21 12:23:00,57.8,17.9,29.98,ENE,68,4.0,6.3,21,0.00,,,0.00,WUHU216HW,2013-03-21 19:23:00,
2013-03-21 12:28:00,57.8,17.9,29.98,East,90,5.4,8.1,21,0.00,,,0.00,WUHU216HW,2013-03-21 19:28:00,
2013-03-21 12:33:00,57.2,17.6,29.98,SSE,158,1.3,8.1,21,0.00,,,0.00,WUHU216HW,2013-03-21 19:33:00,
2013-03-21 12:38:00,57.2,18.5,29.98,NE,45,1.8,7.6,22,0.00,,,0.00,WUHU216HW,2013-03-21 19:38:00,
2013-03-21 12:43:00,57.6,18.7,29.98,SE,135,3.4,4.7,22,0.00,,,0.00,WUHU216HW,2013-03-21 19:43:00,
2013-03-21 12:48:00,58.0,20.0,29.98,ESE,113,2.5,4.7,23,0.00,,,0.00,WUHU216HW,2013-03-21 19:48:00,
2013-03-21 12:53:00,58.3,19.4,29.98,East,90,3.8,8.7,22,0.00,,,0.00,WUHU216HW,2013-03-21 19:53:00,
2013-03-21 12:58:00,58.5,19.5,29.98,ENE,68,2.2,8.7,22,0.00,,,0.00,WUHU216HW,2013-03-21 19:58:00,
2013-03-21 13:03:00,58.7,19.6,29.97,SE,135,2.9,7.2,22,0.00,,,0.00,WUHU216HW,2013-03-21 20:03:00,
2013-03-21 13:08:00,58.9,19.8,29.97,ENE,68,6.9,7.2,22,0.00,,,0.00,WUHU216HW,2013-03-21 20:08:00,
2013-03-21 13:13:00,59.0,19.0,29.97,NNW,338,1.1,7.2,21,0.00,,,0.00,WUHU216HW,2013-03-21 20:13:00,
2013-03-21 13:18:00,59.4,19.3,29.97,SSW,203,1.3,6.9,21,0.00,,,0.00,WUHU216HW,2013-03-21 20:18:00,
2013-03-21 13:23:00,59.6,19.4,29.97,North,0,2.5,4.0,21,0.00,,,0.00,WUHU216HW,2013-03-21 20:23:00,
2013-03-21 13:28:00,60.1,19.9,29.96,North,0,3.4,4.5,21,0.00,,,0.00,WUHU216HW,2013-03-21 20:28:00,
2013-03-21 13:33:00,60.5,20.3,29.96,WNW,293,3.4,4.5,21,0.00,,,0.00,WUHU216HW,2013-03-21 20:33:00,
2013-03-21 13:38:00,61.4,18.5,29.96,WNW,293,3.4,5.1,19,0.00,,,0.00,WUHU216HW,2013-03-21 20:38:00,
2013-03-21 13:43:00,61.6,18.6,29.96,NNW,338,2.7,5.1,19,0.00,,,0.00,WUHU216HW,2013-03-21 20:43:00,
2013-03-21 13:48:00,61.7,17.2,29.96,West,270,1.8,5.1,18,0.00,,,0.00,WUHU216HW,2013-03-21 20:48:00,
2013-03-21 13:53:00,61.9,17.4,29.95,WSW,248,3.4,5.1,18,0.00,,,0.00,WUHU216HW,2013-03-21 20:53:00,
2013-03-21 13:58:00,62.3,17.6,29.95,WNW,293,2.0,5.1,18,0.00,,,0.00,WUHU216HW,2013-03-21 20:58:00,
2013-03-21 14:03:00,62.5,16.2,29.95,NW,315,2.7,4.9,17,0.00,,,0.00,WUHU216HW,2013-03-21 21:03:00,
2013-03-21 14:08:00,62.5,16.2,29.95,NW,315,2.5,5.6,17,0.00,,,0.00,WUHU216HW,2013-03-21 21:08:00,
2013-03-21 14:13:00,62.5,16.2,29.95,NE,45,1.8,5.6,17,0.00,,,0.00,WUHU216HW,2013-03-21 21:13:00,
2013-03-21 14:18:00,62.8,18.1,29.95,North,0,1.8,8.3,18,0.00,,,0.00,WUHU216HW,2013-03-21 21:18:00,
2013-03-21 14:23:00,62.6,16.4,29.95,West,270,4.3,8.3,17,0.00,,,0.00,WUHU216HW,2013-03-21 21:23:00,
2013-03-21 14:28:00,62.8,18.1,29.95,NNW,338,2.2,6.3,18,0.00,,,0.00,WUHU216HW,2013-03-21 21:28:00,
2013-03-21 14:33:00,63.0,18.2,29.95,East,90,1.3,6.0,18,0.00,,,0.00,WUHU216HW,2013-03-21 21:33:00,
2013-03-21 14:38:00,62.5,21.9,29.95,North,0,1.1,5.6,21,0.00,,,0.00,WUHU216HW,2013-03-21 21:38:00,
2013-03-21 14:43:00,61.7,23.2,29.94,NNE,23,4.0,5.6,23,0.00,,,0.00,WUHU216HW,2013-03-21 21:43:00,
2013-03-21 14:48:00,60.8,23.4,29.94,SE,135,3.1,5.4,24,0.00,,,0.00,WUHU216HW,2013-03-21 21:48:00,
2013-03-21 14:53:00,60.5,23.1,29.94,East,90,6.9,11.0,24,0.00,,,0.00,WUHU216HW,2013-03-21 21:53:00,
2013-03-21 14:59:00,59.9,23.7,29.94,East,90,2.5,11.0,25,0.00,,,0.00,WUHU216HW,2013-03-21 21:59:00,
2013-03-21 15:04:00,59.8,23.5,29.94,SSE,158,2.9,6.9,25,0.00,,,0.00,WUHU216HW,2013-03-21 22:04:00,
2013-03-21 15:09:00,59.8,23.5,29.94,East,90,4.0,6.9,25,0.00,,,0.00,WUHU216HW,2013-03-21 22:09:00,
2013-03-21 15:14:00,59.8,23.5,29.94,East,90,5.6,7.8,25,0.00,,,0.00,WUHU216HW,2013-03-21 22:14:00,
2013-03-21 15:19:00,59.4,23.1,29.94,ESE,113,1.3,7.8,25,0.00,,,0.00,WUHU216HW,2013-03-21 22:19:00,
2013-03-21 15:24:00,59.4,23.1,29.94,ESE,113,4.0,5.6,25,0.00,,,0.00,WUHU216HW,2013-03-21 22:24:00,
2013-03-21 15:29:00,59.0,24.9,29.94,ENE,68,5.8,11.2,27,0.00,,,0.00,WUHU216HW,2013-03-21 22:29:00,
2013-03-21 15:34:00,58.3,25.1,29.94,East,90,3.4,11.2,28,0.00,,,0.00,WUHU216HW,2013-03-21 22:34:00,
2013-03-21 15:39:00,58.0,24.9,29.94,SE,135,4.0,7.2,28,0.00,,,0.00,WUHU216HW,2013-03-21 22:39:00,
2013-03-21 15:44:00,57.8,24.7,29.94,East,90,6.5,7.8,28,0.00,,,0.00,WUHU216HW,2013-03-21 22:44:00,
2013-03-21 15:49:00,57.6,24.5,29.94,ENE,68,1.1,7.8,28,0.00,,,0.00,WUHU216HW,2013-03-21 22:49:00,
2013-03-21 15:54:00,57.6,24.5,29.94,ESE,113,1.3,6.0,28,0.00,,,0.00,WUHU216HW,2013-03-21 22:54:00,
2013-03-21 15:59:00,57.6,24.5,29.93,NNE,23,3.4,4.7,28,0.00,,,0.00,WUHU216HW,2013-03-21 22:59:00,
2013-03-21 16:04:00,57.6,25.5,29.93,SE,135,1.8,3.4,29,0.00,,,0.00,WUHU216HW,2013-03-21 23:04:00,
2013-03-21 16:09:00,57.8,26.6,29.93,NW,315,4.0,4.0,30,0.00,,,0.00,WUHU216HW,2013-03-21 23:09:00,
2013-03-21 16:14:00,58.0,25.8,29.93,North,0,2.5,4.7,29,0.00,,,0.00,WUHU216HW,2013-03-21 23:14:00,
2013-03-21 16:19:00,57.8,26.6,29.93,NNE,23,2.2,5.6,30,0.00,,,0.00,WUHU216HW,2013-03-21 23:19:00,
2013-03-21 16:24:00,57.4,26.3,29.93,West,270,4.0,5.6,30,0.00,,,0.00,WUHU216HW,2013-03-21 23:24:00,
2013-03-21 16:29:00,57.2,26.1,29.93,NW,315,3.6,5.4,30,0.00,,,0.00,WUHU216HW,2013-03-21 23:29:00,
2013-03-21 16:34:00,57.1,27.4,29.93,North,0,2.0,4.7,32,0.00,,,0.00,WUHU216HW,2013-03-21 23:34:00,
2013-03-21 16:39:00,57.2,27.6,29.93,West,270,3.4,6.3,32,0.00,,,0.00,WUHU216HW,2013-03-21 23:39:00,
2013-03-21 16:44:00,56.9,26.5,29.93,WNW,293,2.7,6.3,31,0.00,,,0.00,WUHU216HW,2013-03-21 23:44:00,
2013-03-21 16:49:00,56.7,25.7,29.93,NW,315,2.5,5.1,30,0.00,,,0.00,WUHU216HW,2013-03-21 23:49:00,
2013-03-21 16:54:00,56.5,24.5,29.93,WSW,248,1.1,5.4,29,0.00,,,0.00,WUHU216HW,2013-03-21 23:54:00,
2013-03-21 16:59:00,56.3,24.3,29.93,North,0,1.8,5.4,29,0.00,,,0.00,WUHU216HW,2013-03-21 23:59:00,
2013-03-21 17:04:00,56.2,24.2,29.93,NW,315,2.5,4.3,29,0.00,,,0.00,WUHU216HW,2013-03-22 00:04:00,
2013-03-21 17:09:00,55.8,23.9,29.93,NW,315,2.2,5.6,29,0.00,,,0.00,WUHU216HW,2013-03-22 00:09:00,
2013-03-21 17:14:00,55.6,24.7,29.93,WNW,293,2.0,5.6,30,0.00,,,0.00,WUHU216HW,2013-03-22 00:14:00,
2013-03-21 17:19:00,55.4,25.2,29.93,West,270,3.6,4.0,31,0.00,,,0.00,WUHU216HW,2013-03-22 00:19:00,
2013-03-21 17:24:00,55.1,25.6,29.93,NNW,338,2.2,4.0,32,0.00,,,0.00,WUHU216HW,2013-03-22 00:24:00,
2013-03-21 17:29:00,54.7,25.3,29.93,WNW,293,1.8,4.0,32,0.00,,,0.00,WUHU216HW,2013-03-22 00:29:00,
2013-03-21 17:34:00,54.4,23.6,29.93,NNW,338,2.5,5.8,30,0.00,,,0.00,WUHU216HW,2013-03-22 00:34:00,
2013-03-21 17:39:00,54.2,23.5,29.93,West,270,0.9,5.8,30,0.00,,,0.00,WUHU216HW,2013-03-22 00:39:00,
2013-03-21 17:44:00,54.0,23.3,29.93,WNW,293,2.5,5.4,30,0.00,,,0.00,WUHU216HW,2013-03-22 00:44:00,
2013-03-21 17:49:00,53.6,23.0,29.93,NNW,338,1.3,5.4,30,0.00,,,0.00,WUHU216HW,2013-03-22 00:49:00,
2013-03-21 17:54:00,53.5,23.6,29.92,WNW,293,2.5,4.7,31,0.00,,,0.00,WUHU216HW,2013-03-22 00:54:00,
2013-03-21 17:59:00,53.3,23.4,29.93,WNW,293,3.4,6.3,31,0.00,,,0.00,WUHU216HW,2013-03-22 00:59:00,
2013-03-21 18:04:00,53.1,23.2,29.93,West,270,2.9,6.3,31,0.00,,,0.00,WUHU216HW,2013-03-22 01:04:00,
2013-03-21 18:09:00,52.9,23.8,29.93,NNE,23,2.2,4.0,32,0.00,,,0.00,WUHU216HW,2013-03-22 01:09:00,
2013-03-21 18:14:00,52.4,23.9,29.93,WNW,293,4.0,4.0,33,0.00,,,0.00,WUHU216HW,2013-03-22 01:14:00,
2013-03-21 18:19:00,52.2,23.8,29.93,NE,45,1.1,4.9,33,0.00,,,0.00,WUHU216HW,2013-03-22 01:19:00,
2013-03-21 18:24:00,51.8,23.5,29.93,NW,315,1.1,4.9,33,0.00,,,0.00,WUHU216HW,2013-03-22 01:24:00,
2013-03-21 18:29:00,51.7,24.0,29.93,West,270,1.1,4.0,34,0.00,,,0.00,WUHU216HW,2013-03-22 01:29:00,
2013-03-21 18:34:00,51.5,23.9,29.93,West,270,1.3,4.0,34,0.00,,,0.00,WUHU216HW,2013-03-22 01:34:00,
2013-03-21 18:39:00,51.1,23.5,29.93,WNW,293,1.1,2.9,34,0.00,,,0.00,WUHU216HW,2013-03-22 01:39:00,
2013-03-21 18:44:00,50.9,23.3,29.93,WNW,293,1.6,2.5,34,0.00,,,0.00,WUHU216HW,2013-03-22 01:44:00,
2013-03-21 18:49:00,50.6,23.7,29.93,West,270,2.5,3.4,35,0.00,,,0.00,WUHU216HW,2013-03-22 01:49:00,
2013-03-21 18:54:00,50.2,24.8,29.93,WNW,293,1.1,3.4,37,0.00,,,0.00,WUHU216HW,2013-03-22 01:54:00,
2013-03-21 18:59:00,49.9,24.4,29.93,West,270,2.5,4.7,37,0.00,,,0.00,WUHU216HW,2013-03-22 01:59:00,
2013-03-21 19:04:00,49.5,24.9,29.93,WSW,248,1.8,4.7,38,0.00,,,0.00,WUHU216HW,2013-03-22 02:04:00,
2013-03-21 19:09:00,49.3,24.7,29.93,WSW,248,1.6,3.8,38,0.00,,,0.00,WUHU216HW,2013-03-22 02:09:00,
2013-03-21 19:14:00,49.0,24.3,29.93,West,270,1.8,3.8,38,0.00,,,0.00,WUHU216HW,2013-03-22 02:14:00,
2013-03-21 19:19:00,48.6,24.0,29.93,WSW,248,2.2,4.0,38,0.00,,,0.00,WUHU216HW,2013-03-22 02:19:00,
2013-03-21 19:24:00,48.2,23.7,29.93,WSW,248,1.8,4.0,38,0.00,,,0.00,WUHU216HW,2013-03-22 02:24:00,
2013-03-21 19:29:00,47.9,23.4,29.93,WSW,248,1.8,4.0,38,0.00,,,0.00,WUHU216HW,2013-03-22 02:29:00,
2013-03-21 19:34:00,47.3,22.9,29.93,WSW,248,4.0,4.0,38,0.00,,,0.00,WUHU216HW,2013-03-22 02:34:00,
2013-03-21 19:39:00,47.0,21.9,29.92,West,270,1.8,4.0,37,0.00,,,0.00,WUHU216HW,2013-03-22 02:39:00,
2013-03-21 19:44:00,46.6,21.6,29.92,West,270,1.6,3.6,37,0.00,,,0.00,WUHU216HW,2013-03-22 02:44:00,
2013-03-21 19:49:00,46.1,21.8,29.91,WSW,248,2.9,3.6,38,0.00,,,0.00,WUHU216HW,2013-03-22 02:49:00,
2013-03-21 19:54:00,45.7,21.4,29.91,West,270,1.3,4.9,38,0.00,,,0.00,WUHU216HW,2013-03-22 02:54:00,
2013-03-21 19:59:00,45.4,21.1,29.91,NW,315,1.3,4.9,38,0.00,,,0.00,WUHU216HW,2013-03-22 02:59:00,
2013-03-21 20:04:00,45.0,20.8,29.91,NW,315,1.1,2.0,38,0.00,,,0.00,WUHU216HW,2013-03-22 03:04:00,
2013-03-21 20:09:00,44.8,20.6,29.91,WSW,248,1.1,1.8,38,0.00,,,0.00,WUHU216HW,2013-03-22 03:09:00,
2013-03-21 20:14:00,44.3,20.2,29.91,North,0,0.4,1.8,38,0.00,,,0.00,WUHU216HW,2013-03-22 03:14:00,
2013-03-21 20:19:00,43.9,20.4,29.92,West,270,1.1,1.8,39,0.00,,,0.00,WUHU216HW,2013-03-22 03:19:00,
2013-03-21 20:24:00,43.6,20.2,29.92,WNW,293,0.7,1.8,39,0.00,,,0.00,WUHU216HW,2013-03-22 03:24:00,
2013-03-21 20:29:00,43.2,19.8,29.92,West,270,1.8,1.8,39,0.00,,,0.00,WUHU216HW,2013-03-22 03:29:00,
2013-03-21 20:34:00,42.8,19.5,29.91,West,270,0.9,1.8,39,0.00,,,0.00,WUHU216HW,2013-03-22 03:34:00,
2013-03-21 20:39:00,42.5,19.8,29.91,WSW,248,1.1,1.8,40,0.00,,,0.00,WUHU216HW,2013-03-22 03:39:00,
2013-03-21 20:44:00,42.1,19.5,29.91,West,270,0.2,1.1,40,0.00,,,0.00,WUHU216HW,2013-03-22 03:44:00,
2013-03-21 20:49:00,41.8,19.2,29.91,WNW,293,1.1,1.6,40,0.00,,,0.00,WUHU216HW,2013-03-22 03:49:00,
2013-03-21 20:54:00,41.4,19.4,29.91,WNW,293,1.3,2.9,41,0.00,,,0.00,WUHU216HW,2013-03-22 03:54:00,
2013-03-21 20:59:00,41.0,19.1,29.91,West,270,1.8,2.9,41,0.00,,,0.00,WUHU216HW,2013-03-22 03:59:00,
2013-03-21 21:00:00,41.0,19.1,29.91,West,270,1.1,2.9,41,0.00,,,0.00,WUHU216HW,2013-03-22 04:00:00,
2013-03-21 21:05:00,40.7,18.7,29.91,WNW,293,1.8,4.3,41,0.00,,,0.00,WUHU216HW,2013-03-22 04:05:00,
2013-03-21 21:10:00,40.7,18.7,29.91,West,270,1.8,4.3,41,0.00,,,0.00,WUHU216HW,2013-03-22 04:10:00,
2013-03-21 21:15:00,40.7,19.3,29.91,WNW,293,1.6,3.4,42,0.00,,,0.00,WUHU216HW,2013-03-22 04:15:00,
2013-03-21 21:20:00,40.9,19.5,29.91,NNW,338,1.3,3.1,42,0.00,,,0.00,WUHU216HW,2013-03-22 04:20:00,
2013-03-21 21:25:00,41.0,20.1,29.91,WNW,293,2.2,2.5,43,0.00,,,0.00,WUHU216HW,2013-03-22 04:25:00,
2013-03-21 21:30:00,41.2,20.3,29.91,WNW,293,1.6,2.9,43,0.00,,,0.00,WUHU216HW,2013-03-22 04:30:00,
2013-03-21 21:35:00,41.4,21.0,29.91,West,270,2.0,3.8,44,0.00,,,0.00,WUHU216HW,2013-03-22 04:35:00,
2013-03-21 21:40:00,41.4,21.0,29.90,West,270,1.1,4.7,44,0.00,,,0.00,WUHU216HW,2013-03-22 04:40:00,
2013-03-21 21:45:00,41.4,21.0,29.90,West,270,1.1,4.7,44,0.00,,,0.00,WUHU216HW,2013-03-22 04:45:00,
2013-03-21 21:50:00,41.6,21.2,29.90,West,270,2.7,5.1,44,0.00,,,0.00,WUHU216HW,2013-03-22 04:50:00,
2013-03-21 21:55:00,41.6,21.2,29.90,West,270,2.7,5.1,44,0.00,,,0.00,WUHU216HW,2013-03-22 04:55:00,
2013-03-21 22:00:00,41.8,21.9,29.91,SW,225,3.4,4.3,45,0.00,,,0.00,WUHU216HW,2013-03-22 05:00:00,
2013-03-21 22:05:00,41.8,21.9,29.91,WNW,293,2.0,4.3,45,0.00,,,0.00,WUHU216HW,2013-03-22 05:05:00,
2013-03-21 22:10:00,41.8,21.9,29.91,WNW,293,4.9,4.9,45,0.00,,,0.00,WUHU216HW,2013-03-22 05:10:00,
2013-03-21 22:15:00,41.9,21.5,29.91,NNW,338,4.5,6.9,44,0.00,,,0.00,WUHU216HW,2013-03-22 05:15:00,
2013-03-21 22:20:00,41.9,21.0,29.90,West,270,3.4,7.8,43,0.00,,,0.00,WUHU216HW,2013-03-22 05:20:00,
2013-03-21 22:25:00,41.9,21.0,29.90,West,270,4.7,7.8,43,0.00,,,0.00,WUHU216HW,2013-03-22 05:25:00,
2013-03-21 22:30:00,42.1,21.2,29.90,West,270,3.6,7.6,43,0.00,,,0.00,WUHU216HW,2013-03-22 05:30:00,
2013-03-21 22:35:00,42.1,20.6,29.90,NW,315,4.3,7.6,42,0.00,,,0.00,WUHU216HW,2013-03-22 05:35:00,
2013-03-21 22:40:00,42.1,19.5,29.90,WNW,293,6.3,6.3,40,0.00,,,0.00,WUHU216HW,2013-03-22 05:40:00,
2013-03-21 22:45:00,42.1,18.2,29.90,WNW,293,2.9,6.3,38,0.00,,,0.00,WUHU216HW,2013-03-22 05:45:00,
2013-03-21 22:50:00,42.1,17.6,29.90,West,270,2.7,6.3,37,0.00,,,0.00,WUHU216HW,2013-03-22 05:50:00,
2013-03-21 22:55:00,42.1,16.2,29.90,WNW,293,4.0,5.4,35,0.00,,,0.00,WUHU216HW,2013-03-22 05:55:00,
2013-03-21 23:00:00,42.1,16.2,29.89,NW,315,3.4,6.3,35,0.00,,,0.00,WUHU216HW,2013-03-22 06:00:00,
2013-03-21 23:05:00,42.1,15.0,29.90,WNW,293,5.4,6.3,33,0.00,,,0.00,WUHU216HW,2013-03-22 06:05:00,
2013-03-21 23:10:00,42.1,15.6,29.90,WSW,248,2.7,5.6,34,0.00,,,0.00,WUHU216HW,2013-03-22 06:10:00,
2013-03-21 23:15:00,41.9,16.0,29.90,WSW,248,2.5,5.6,35,0.00,,,0.00,WUHU216HW,2013-03-22 06:15:00,
2013-03-21 23:20:00,41.9,16.0,29.90,NW,315,2.7,5.4,35,0.00,,,0.00,WUHU216HW,2013-03-22 06:20:00,
2013-03-21 23:25:00,41.8,14.6,29.89,SW,225,4.5,6.9,33,0.00,,,0.00,WUHU216HW,2013-03-22 06:25:00,
2013-03-21 23:30:00,41.8,14.6,29.89,NNW,338,3.4,6.9,33,0.00,,,0.00,WUHU216HW,2013-03-22 06:30:00,
2013-03-21 23:35:00,41.8,14.0,29.88,NW,315,2.9,5.4,32,0.00,,,0.00,WUHU216HW,2013-03-22 06:35:00,
2013-03-21 23:40:00,41.8,12.6,29.88,SW,225,4.3,6.3,30,0.00,,,0.00,WUHU216HW,2013-03-22 06:40:00,
2013-03-21 23:45:00,41.8,11.7,29.88,WNW,293,3.6,6.5,29,0.00,,,0.00,WUHU216HW,2013-03-22 06:45:00,
2013-03-21 23:50:00,41.8,11.7,29.88,WNW,293,2.9,6.5,29,0.00,,,0.00,WUHU216HW,2013-03-22 06:50:00,
2013-03-21 23:55:00,41.6,11.6,29.87,SW,225,4.5,6.5,29,0.00,,,0.00,WUHU216HW,2013-03-22 06:55:00,